N1ADJ Weather Reports


Display with metric or nautical units.
time (UTC)temp
F
wind
direction
speed
MPH
gust
MPH
rain 1hr
in
rain 24hr
in
rain mn
in
humidity
%
barometer
mb
20260508025020 49 0.0 2.0 0.00 0.17 0.16 51 1007.1
20260508024523 50 0.0 3.0 0.00 0.17 0.16 49 1007.0
20260508024103 50 0.0 3.0 0.00 0.17 0.16 48 1006.9
20260508023519 50 0.0 2.0 0.00 0.17 0.16 48 1006.9
20260508023018 50 0.0 2.0 0.00 0.17 0.16 48 1006.8
20260508022537 51 0.0 4.0 0.00 0.17 0.16 49 1006.8
20260508022022 51 315 1.0 4.0 0.00 0.17 0.16 47 1006.7
20260508021517 51 315 3.0 10.0 0.00 0.17 0.16 46 1006.7
20260508021018 51 315 2.0 8.0 0.00 0.17 0.16 48 1006.7
20260508020520 51 315 2.0 8.0 0.00 0.17 0.16 48 1006.7
20260508020022 51 0.0 4.0 0.00 0.17 0.16 49 1006.4
20260508015542 51 315 1.0 7.0 0.00 0.17 0.16 52 1006.6
20260508015018 51 338 1.0 5.0 0.00 0.18 0.16 53 1006.6
20260508014517 51 0.0 1.0 0.00 0.18 0.16 53 1006.6
20260508014102 52 315 1.0 5.0 0.00 0.18 0.16 48 1006.5
20260508013537 52 0.0 4.0 0.00 0.18 0.16 49 1006.4
20260508013019 53 0.0 5.0 0.00 0.18 0.16 48 1006.2
20260508012518 53 0.0 2.0 0.00 0.19 0.16 46 1006.2
20260508012020 53 0.0 3.0 0.00 0.19 0.16 44 1006.2
20260508011542 53 315 1.0 4.0 0.00 0.19 0.16 45 1006.1
20260508011020 54 293 1.0 4.0 0.00 0.19 0.16 45 1005.8
20260508010518 54 315 1.0 8.0 0.00 0.19 0.16 45 1005.8
20260508010023 54 315 3.0 9.0 0.00 0.19 0.16 44 1005.7
20260508005518 54 315 2.0 6.0 0.00 0.19 0.16 43 1005.7
20260508005023 55 315 3.0 9.0 0.00 0.20 0.16 42 1005.5
20260508004522 55 338 3.0 6.0 0.00 0.20 0.16 42 1005.4
20260508004022 55 315 4.0 8.0 0.00 0.20 0.16 42 1005.3
20260508003537 55 315 3.0 8.0 0.00 0.21 0.16 41 1005.1
20260508003017 56 315 3.0 9.0 0.00 0.21 0.16 41 1005.2
20260508002522 56 338 3.0 9.0 0.00 0.21 0.16 41 1005.1
20260508002018 56 315 2.0 7.0 0.00 0.21 0.16 42 1005.0
20260508001517 57 0.0 3.0 0.00 0.21 0.16 41 1004.9
20260508001019 57 315 2.0 8.0 0.00 0.21 0.16 40 1004.9
20260508000519 57 315 3.0 10.0 0.00 0.21 0.16 40 1004.9
20260508000018 57 315 2.0 5.0 0.00 0.21 0.16 40 1004.9
20260507235520 58 315 2.0 5.0 0.00 0.21 0.16 39 1004.6
20260507235040 58 315 2.0 5.0 0.00 0.21 0.16 39 1004.7
20260507234519 58 315 2.0 6.0 0.00 0.21 0.16 39 1004.8
20260507234038 58 315 3.0 6.0 0.00 0.21 0.16 38 1004.8
20260507233519 59 315 3.0 6.0 0.00 0.21 0.16 38 1004.6
20260507233021 59 315 3.0 8.0 0.00 0.21 0.16 37 1004.6
20260507232518 59 315 4.0 8.0 0.00 0.21 0.16 37 1004.6
20260507232018 59 315 2.0 5.0 0.00 0.21 0.16 38 1004.4
20260507231519 60 315 2.0 8.0 0.00 0.21 0.16 37 1004.2
20260507231038 60 315 2.0 8.0 0.00 0.21 0.16 36 1004.3
20260507230542 60 315 4.0 10.0 0.00 0.21 0.16 36 1004.2
20260507230018 60 315 5.0 10.0 0.00 0.21 0.16 36 1004.0
20260507225518 61 315 7.0 15.0 0.00 0.21 0.16 34 1004.0
20260507225017 61 315 4.0 10.0 0.00 0.21 0.16 36 1004.0
20260507224517 61 315 4.0 12.0 0.00 0.21 0.16 34 1003.8
20260507224017 61 270 4.0 16.0 0.00 0.21 0.16 34 1003.8
20260507223518 61 293 3.0 10.0 0.00 0.21 0.16 34 1003.7
20260507223017 61 315 5.0 11.0 0.00 0.21 0.16 33 1003.7
20260507222522 62 315 3.0 9.0 0.00 0.21 0.16 32 1003.7
20260507222020 62 293 4.0 13.0 0.00 0.22 0.16 33 1003.5
20260507221517 62 315 7.0 13.0 0.00 0.22 0.16 35 1003.5
20260507221018 63 270 5.0 12.0 0.00 0.22 0.16 34 1003.6
20260507220519 63 270 7.0 12.0 0.00 0.23 0.16 35 1003.5
20260507220024 63 293 6.0 14.0 0.00 0.23 0.16 33 1003.3
20260507215523 63 270 8.0 16.0 0.00 0.23 0.16 33 1003.4
20260507215019 63 270 5.0 19.0 0.00 0.24 0.16 34 1003.6
20260507214517 63 270 7.0 18.0 0.00 0.24 0.16 33 1003.5
20260507214038 63 270 7.0 14.0 0.00 0.25 0.16 33 1003.5
20260507213538 63 315 6.0 14.0 0.00 0.25 0.16 32 1003.4
20260507213031 64 315 3.0 7.0 0.00 0.26 0.16 35 1003.6
20260507212539 64 270 6.0 14.0 0.00 0.26 0.16 34 1003.6
20260507212020 64 338 5.0 13.0 0.00 0.27 0.16 33 1003.5
20260507211520 64 270 6.0 14.0 0.00 0.28 0.16 36 1003.5
20260507211018 64 270 4.0 9.0 0.00 0.29 0.16 36 1003.4
20260507210520 64 270 9.0 17.0 0.00 0.30 0.16 35 1003.5
20260507210018 64 293 6.0 17.0 0.00 0.30 0.16 33 1003.3
20260507205520 65 270 6.0 16.0 0.00 0.31 0.16 34 1003.4
20260507205020 64 270 9.0 18.0 0.00 0.31 0.16 35 1003.2
20260507204523 64 270 13.0 20.0 0.00 0.32 0.16 37 1003.0
20260507204019 65 270 8.0 17.0 0.00 0.32 0.16 33 1003.2
20260507203522 65 270 9.0 16.0 0.00 0.32 0.16 34 1002.9
20260507203042 65 270 7.0 15.0 0.00 0.32 0.16 35 1003.1
20260507202518 65 270 10.0 22.0 0.00 0.33 0.16 30 1002.9
20260507202017 65 270 10.0 16.0 0.00 0.34 0.16 37 1003.0
20260507201519 65 270 9.0 19.0 0.00 0.34 0.16 34 1003.1
20260507201039 65 270 11.0 25.0 0.00 0.34 0.16 29 1003.0
20260507200523 65 270 7.0 15.0 0.00 0.35 0.16 34 1003.1
20260507200017 65 270 6.0 12.0 0.00 0.36 0.16 34 1003.0
20260507195537 64 270 10.0 19.0 0.00 0.36 0.16 34 1003.1
20260507195038 65 270 10.0 17.0 0.00 0.38 0.16 36 1003.1
20260507194517 65 270 9.0 18.0 0.00 0.39 0.16 34 1003.1
20260507194017 65 270 8.0 20.0 0.00 0.40 0.16 41 1003.2
20260507193520 65 270 7.0 15.0 0.00 0.41 0.16 42 1003.3
20260507193021 65 270 4.0 11.0 0.00 0.42 0.16 48 1003.4
20260507192519 65 270 7.0 16.0 0.00 0.43 0.16 46 1003.4
20260507192044 65 270 12.0 23.0 0.00 0.44 0.16 46 1003.4
20260507191517 64 270 10.0 18.0 0.00 0.46 0.16 44 1003.4
20260507191018 64 270 11.0 21.0 0.00 0.46 0.16 46 1003.4
20260507190520 64 248 10.0 21.0 0.00 0.46 0.16 53 1003.4
20260507190023 64 248 10.0 20.0 0.00 0.46 0.16 50 1003.4
20260507185521 63 248 10.0 18.0 0.00 0.46 0.16 52 1003.4
20260507185021 63 225 8.0 14.0 0.00 0.46 0.16 54 1003.4
20260507184518 63 225 6.0 13.0 0.00 0.46 0.16 56 1003.4
20260507184020 63 225 5.0 10.0 0.00 0.46 0.16 57 1003.5
20260507183518 64 203 4.0 7.0 0.00 0.46 0.16 61 1003.5
20260507183019 65 225 4.0 9.0 0.00 0.46 0.16 60 1003.6
20260507182522 64 203 4.0 9.0 0.00 0.46 0.16 62 1003.5
20260507182017 63 180 4.0 8.0 0.00 0.46 0.16 62 1003.5
20260507181522 62 225 4.0 8.0 0.00 0.46 0.16 66 1003.6
20260507181021 61 203 4.0 11.0 0.00 0.46 0.16 68 1003.8
20260507180539 61 203 6.0 12.0 0.00 0.46 0.16 64 1003.8
20260507180019 60 225 5.0 12.0 0.00 0.46 0.16 66 1003.9
20260507175520 59 225 6.0 11.0 0.00 0.46 0.16 67 1003.8
20260507175019 59 203 6.0 14.0 0.00 0.46 0.16 66 1004.0
20260507174516 59 225 7.0 16.0 0.00 0.46 0.16 66 1004.0
20260507174021 58 225 7.0 16.0 0.00 0.46 0.16 69 1004.2
20260507173519 57 203 6.0 12.0 0.00 0.46 0.16 70 1004.1
20260507173017 57 203 6.0 12.0 0.00 0.46 0.16 70 1004.2
20260507172521 57 225 6.0 14.0 0.00 0.46 0.16 69 1004.1
20260507172021 58 225 9.0 17.0 0.00 0.46 0.16 68 1004.2
20260507171520 58 248 8.0 14.0 0.00 0.46 0.16 71 1004.4
20260507171019 57 225 6.0 15.0 0.00 0.46 0.16 72 1004.4
20260507170516 57 225 6.0 11.0 0.00 0.46 0.16 73 1004.4
20260507170125 57 225 8.0 15.0 0.00 0.46 0.16 71 1004.5
20260507165521 58 225 8.0 15.0 0.00 0.46 0.16 73 1004.5
20260507165018 59 225 8.0 18.0 0.00 0.46 0.16 71 1004.3
20260507164519 60 225 8.0 18.0 0.00 0.46 0.16 70 1004.2
20260507164017 61 225 5.0 11.0 0.00 0.46 0.16 66 1004.3
20260507163524 61 225 5.0 11.0 0.00 0.46 0.16 66 1004.4
20260507163018 62 225 7.0 15.0 0.00 0.46 0.16 66 1004.3
20260507162518 61 225 4.0 9.0 0.00 0.46 0.16 67 1004.4
20260507162018 61 225 4.0 8.0 0.00 0.46 0.16 65 1004.4
20260507161526 62 225 4.0 8.0 0.00 0.46 0.16 65 1004.6
20260507161016 61 225 6.0 14.0 0.00 0.46 0.16 66 1004.6
20260507160538 61 225 6.0 13.0 0.00 0.46 0.16 61 1004.8
20260507160016 60 225 8.0 14.0 0.00 0.46 0.16 61 1004.8
20260507155518 60 225 7.0 12.0 0.00 0.46 0.16 63 1004.8
20260507155043 60 225 8.0 13.0 0.00 0.46 0.16 62 1004.9
20260507154516 60 248 8.0 12.0 0.00 0.46 0.16 66 1004.9
20260507154036 60 225 6.0 12.0 0.00 0.46 0.16 62 1005.0
20260507153537 60 225 6.0 12.0 0.00 0.46 0.16 67 1005.2
20260507153016 60 203 5.0 8.0 0.00 0.46 0.16 65 1004.9
20260507152538 60 203 4.0 8.0 0.00 0.46 0.16 65 1005.1
20260507152016 60 203 5.0 7.0 0.00 0.46 0.16 63 1005.2
20260507151527 60 248 7.0 15.0 0.00 0.46 0.16 63 1005.1
20260507151017 61 68 1.0 3.0 0.00 0.46 0.16 63 1005.1
20260507150520 61 45 2.0 4.0 0.00 0.46 0.16 65 1005.2
20260507150017 60 315 4.0 9.0 0.00 0.46 0.16 61 1005.3
20260507145516 60 225 4.0 8.0 0.00 0.46 0.16 66 1005.4
20260507145037 59 270 5.0 12.0 0.00 0.46 0.16 66 1005.5
20260507144538 59 315 2.0 5.0 0.00 0.46 0.16 64 1005.3
20260507144022 59 270 5.0 10.0 0.00 0.46 0.16 66 1005.5
20260507143516 58 225 3.0 6.0 0.00 0.46 0.16 66 1005.5
20260507143017 58 270 4.0 11.0 0.00 0.46 0.16 68 1005.6
20260507142519 58 225 5.0 12.0 0.00 0.46 0.16 72 1005.7
20260507142019 58 270 4.0 9.0 0.00 0.46 0.16 69 1005.8
20260507141517 57 270 4.0 11.0 0.00 0.46 0.16 72 1005.8
20260507141016 57 293 4.0 9.0 0.00 0.46 0.16 70 1005.8
20260507140517 57 270 5.0 11.0 0.00 0.46 0.16 68 1005.8
20260507140017 57 270 5.0 10.0 0.00 0.46 0.16 72 1005.9
20260507135517 56 270 4.0 9.0 0.00 0.46 0.16 74 1005.8
20260507135016 56 270 6.0 11.0 0.00 0.46 0.16 73 1006.0
20260507134518 56 270 4.0 11.0 0.00 0.46 0.16 72 1006.0
20260507134018 56 315 3.0 9.0 0.00 0.46 0.16 73 1006.0
20260507133520 55 315 4.0 8.0 0.00 0.46 0.16 75 1005.9
20260507133018 55 270 2.0 7.0 0.00 0.46 0.16 71 1006.2
20260507132519 55 23 3.0 7.0 0.00 0.46 0.16 75 1006.1
20260507132021 55 315 5.0 9.0 0.00 0.46 0.16 73 1006.2
20260507131518 55 270 4.0 9.0 0.00 0.46 0.16 76 1006.0
20260507131018 54 270 2.0 7.0 0.00 0.46 0.16 77 1006.1
20260507130538 54 338 3.0 6.0 0.00 0.46 0.16 77 1006.1
20260507130018 54 315 4.0 9.0 0.00 0.46 0.16 78 1006.3
20260507125518 53 270 4.0 9.0 0.00 0.46 0.16 78 1006.3
20260507125018 53 270 3.0 6.0 0.00 0.46 0.16 79 1006.3
20260507124518 53 270 6.0 11.0 0.00 0.46 0.16 78 1006.5
20260507124023 52 293 4.0 9.0 0.00 0.46 0.16 81 1006.4
20260507123538 52 270 6.0 12.0 0.00 0.46 0.16 81 1006.4
20260507123018 52 270 5.0 10.0 0.00 0.46 0.16 81 1006.4
20260507122518 51 270 5.0 10.0 0.00 0.46 0.16 82 1006.4
20260507122018 51 315 5.0 11.0 0.00 0.46 0.16 81 1006.1
20260507121518 51 315 5.0 13.0 0.00 0.46 0.16 84 1006.2
20260507121019 50 315 4.0 9.0 0.00 0.46 0.16 84 1006.1
20260507120518 50 270 3.0 7.0 0.00 0.46 0.16 87 1006.3
20260507120018 49 293 4.0 9.0 0.00 0.46 0.16 87 1006.1
20260507115518 49 270 3.0 6.0 0.00 0.46 0.16 89 1006.3
20260507115018 48 270 1.0 3.0 0.00 0.46 0.16 91 1006.1
20260507114525 48 293 1.0 5.0 0.00 0.46 0.16 90 1006.2
20260507114019 48 293 2.0 5.0 0.00 0.46 0.16 91 1006.1
20260507113518 48 315 2.0 5.0 0.00 0.46 0.16 92 1006.1
20260507113018 48 270 2.0 7.0 0.00 0.46 0.16 93 1006.4
20260507112518 48 270 1.0 5.0 0.00 0.46 0.16 93 1006.4
20260507112019 48 0.0 0.0 0.00 0.46 0.16 93 1006.3
20260507111517 48 0.0 0.0 0.00 0.46 0.16 93 1006.5
20260507111019 48 0.0 0.0 0.00 0.46 0.16 94 1006.6
20260507110518 48 0.0 0.0 0.00 0.46 0.16 94 1006.5
20260507110028 48 0.0 0.0 0.00 0.46 0.16 94 1006.1
20260507105518 48 0.0 0.0 0.00 0.46 0.16 94 1006.3
20260507105020 48 0.0 0.0 0.00 0.46 0.16 94 1006.7
20260507104519 47 0.0 0.0 0.00 0.46 0.16 94 1006.9
20260507104018 47 0.0 0.0 0.00 0.46 0.16 94 1006.4
20260507103518 47 270 1.0 3.0 0.00 0.46 0.16 94 1006.4
20260507103020 47 270 2.0 4.0 0.00 0.46 0.16 93 1006.7
20260507102518 47 293 1.0 3.0 0.00 0.46 0.16 93 1006.3
20260507102021 47 293 1.0 4.0 0.00 0.46 0.16 93 1006.2
20260507101517 47 270 2.0 3.0 0.00 0.46 0.16 93 1006.3
20260507101043 47 270 2.0 6.0 0.00 0.46 0.16 93 1006.5
20260507100519 47 270 3.0 6.0 0.00 0.46 0.16 93 1006.2
20260507100027 47 293 1.0 3.0 0.00 0.46 0.16 93 1006.4
20260507095523 47 315 1.0 3.0 0.00 0.46 0.16 93 1005.9
20260507095017 47 0.0 3.0 0.00 0.46 0.16 93 1005.9
20260507094539 47 0.0 3.0 0.00 0.46 0.16 93 1005.8
20260507094019 47 270 2.0 6.0 0.00 0.46 0.16 93 1006.3
20260507093519 47 315 2.0 5.0 0.00 0.46 0.16 92 1006.0
20260507093019 47 315 2.0 5.0 0.00 0.46 0.16 92 1005.3
20260507092520 47 315 2.0 5.0 0.00 0.46 0.16 92 1005.5
20260507092018 47 338 1.0 3.0 0.00 0.46 0.16 93 1005.5
20260507091538 47 338 2.0 5.0 0.00 0.46 0.16 92 1005.7
20260507091018 47 315 3.0 8.0 0.00 0.46 0.16 92 1006.0
20260507090538 48 315 3.0 10.0 0.00 0.46 0.16 93 1005.8
20260507090019 48 315 2.0 6.0 0.00 0.46 0.16 93 1005.8
20260507085519 48 315 3.0 8.0 0.00 0.46 0.16 93 1005.7
20260507085020 48 315 3.0 6.0 0.00 0.46 0.16 93 1006.2
20260507084518 48 315 4.0 8.0 0.00 0.46 0.16 93 1006.1
20260507084022 48 315 5.0 12.0 0.00 0.46 0.16 93 1005.9
20260507083518 48 315 5.0 11.0 0.00 0.46 0.16 94 1005.7
20260507083019 48 315 5.0 15.0 0.00 0.46 0.16 95 1005.4
20260507082518 48 315 6.0 13.0 0.00 0.46 0.16 95 1005.4
20260507082020 49 315 3.0 11.0 0.00 0.46 0.16 96 1005.8
20260507081517 49 338 3.0 10.0 0.00 0.46 0.16 97 1006.0
20260507081018 49 293 2.0 8.0 0.00 0.46 0.16 97 1005.9
20260507080519 49 293 2.0 6.0 0.00 0.46 0.16 97 1005.5
20260507080030 49 315 2.0 5.0 0.00 0.46 0.16 97 1005.3
20260507075520 49 315 3.0 7.0 0.00 0.46 0.16 97 1005.5
20260507075037 49 315 2.0 5.0 0.00 0.46 0.16 97 1005.1
20260507074517 49 293 2.0 4.0 0.00 0.46 0.16 97 1005.6
20260507074018 50 315 1.0 4.0 0.00 0.46 0.16 97 1005.4
20260507073517 50 315 1.0 4.0 0.00 0.46 0.16 97 1005.5
20260507073018 50 315 2.0 4.0 0.00 0.46 0.16 97 1005.3
20260507072539 50 293 1.0 3.0 0.00 0.46 0.16 97 1005.2
20260507072017 50 293 1.0 5.0 0.00 0.46 0.16 98 1005.4
20260507071519 50 315 1.0 2.0 0.00 0.46 0.16 98 1005.2
20260507071019 50 293 1.0 3.0 0.00 0.46 0.16 98 1005.1
20260507070517 50 293 1.0 2.0 0.00 0.46 0.16 98 1005.2
20260507070018 50 293 2.0 7.0 0.00 0.46 0.16 97 1005.2
20260507065518 50 293 2.0 5.0 0.00 0.46 0.16 98 1005.1
20260507065019 51 293 1.0 5.0 0.00 0.46 0.16 98 1004.7
20260507064519 51 0.0 2.0 0.01 0.46 0.16 98 1004.6
20260507064058 51 0.0 2.0 0.01 0.46 0.16 98 1004.8
20260507063518 51 315 1.0 4.0 0.01 0.46 0.16 98 1004.9
20260507063019 51 0.0 2.0 0.01 0.46 0.16 98 1004.6
20260507062518 51 0.0 0.0 0.01 0.46 0.16 98 1004.5
20260507062018 51 0.0 1.0 0.01 0.46 0.16 98 1004.4
20260507061537 51 293 1.0 5.0 0.01 0.46 0.16 98 1004.5
20260507061017 51 0.0 3.0 0.01 0.46 0.16 98 1004.6
20260507060540 51 315 2.0 5.0 0.01 0.46 0.16 98 1004.5
20260507060022 51 0.0 4.0 0.01 0.46 0.16 98 1004.6
20260507055517 51 0.0 1.0 0.01 0.46 0.16 98 1004.5
20260507055019 51 68 1.0 7.0 0.01 0.46 0.16 98 1004.6
20260507054518 52 338 3.0 10.0 0.01 0.45 0.15 98 1004.6
20260507054018 52 338 3.0 10.0 0.03 0.45 0.15 98 1004.4
20260507053519 52 315 2.0 8.0 0.04 0.45 0.15 98 1004.6
20260507053018 53 338 2.0 6.0 0.06 0.45 0.15 98 1004.4
20260507052517 53 45 1.0 4.0 0.08 0.45 0.15 98 1004.6
20260507052018 53 338 2.0 5.0 0.10 0.45 0.15 99 1004.5
20260507051518 53 315 1.0 5.0 0.12 0.45 0.15 99 1004.7
20260507051017 53 315 2.0 8.0 0.13 0.45 0.15 99 1004.5
20260507050517 53 315 2.0 6.0 0.14 0.45 0.15 98 1004.4
20260507050017 53 315 2.0 8.0 0.15 0.45 0.15 98 1004.2
20260507045518 53 338 4.0 12.0 0.15 0.45 0.15 99 1004.2
20260507045018 53 338 5.0 13.0 0.15 0.45 0.15 98 1004.2
20260507044518 52 338 1.0 7.0 0.14 0.44 0.14 98 1004.1
20260507044017 52 0.0 0.0 0.12 0.42 0.12 98 1004.3
20260507043519 52 0.0 0.0 0.11 0.41 0.11 98 1004.5
20260507043019 52 0.0 0.0 0.09 0.39 0.09 98 1004.5
20260507042517 52 0.0 0.0 0.07 0.37 0.07 98 1004.8
20260507042039 52 0.0 3.0 0.05 0.35 0.05 98 1004.5
20260507041517 52 293 1.0 4.0 0.03 0.33 0.03 98 1004.4
20260507041038 52 315 3.0 9.0 0.03 0.32 0.02 98 1004.3
20260507040521 52 225 4.0 11.0 0.02 0.31 0.01 98 1004.1
20260507040019 52 248 3.0 6.0 0.01 0.30 0.30 98 1003.6
20260507035603 52 225 3.0 7.0 0.01 0.30 0.30 98 1003.6
20260507035018 52 203 3.0 8.0 0.01 0.30 0.30 98 1003.7
20260507034538 52 203 3.0 6.0 0.01 0.30 0.30 98 1003.7
20260507034025 52 180 2.0 7.0 0.01 0.30 0.30 98 1003.9
20260507033521 52 225 3.0 8.0 0.01 0.30 0.30 98 1003.8
20260507033017 52 225 4.0 8.0 0.01 0.30 0.30 98 1003.8
20260507032518 52 225 3.0 7.0 0.01 0.30 0.30 98 1003.8
20260507032019 52 203 4.0 9.0 0.01 0.30 0.30 98 1003.8
20260507031518 52 225 5.0 12.0 0.01 0.30 0.30 98 1003.8
20260507031039 52 203 4.0 9.0 0.00 0.29 0.29 98 1003.9
20260507030520 52 225 3.0 9.0 0.00 0.29 0.29 98 1003.8
20260507030018 52 225 4.0 15.0 0.00 0.29 0.29 98 1003.8
20260507025545 51 203 2.0 7.0 0.00 0.29 0.29 98 1003.7